Home > Weather > Puerto Vallarta > Past weeks

Flag for Mexico Weather for the Past 2 Weeks in Puerto Vallarta, Jalisco, Mexico

Now
81 °F

High level clouds.


Feels Like: 83 °F
Forecast: 67 / 81 °F
Wind: 10 mph from Southwest

Location: Puerto Vallarta / Lic

Current Time: May 1, 2016 at 1:19:25 PM

Latest Report: May 1, 2016 at 12:45 PM


Visibility: 12 mi

Pressure: 29.87 "Hg

Humidity: 66%

Dew Point: 68 °F

Location of Puerto VallartaLocation

Historic Weather in Puerto Vallarta — Graph

°F

Puerto Vallarta Temperature Yesterday

Maximum temperature yesterday: 81 °F (at 11:47 AM)
Minimum temperature yesterday: 72 °F (at 1:45 AM)
Average temperature yesterday: 76 °F

High & Low Weather Summary for the Past Weeks

 TemperatureHumidityPressure
High86 °F (Apr 19, 1:45 PM)100% (Apr 23, 1:46 AM)29.96 "Hg (Apr 23, 1:46 AM)
Low32 °F (Apr 23, 1:46 AM)30% (Apr 22, 12:47 PM)29.73 "Hg (Apr 27, 5:46 PM)
Average75 °F77%29.86 "Hg
* Reported Apr 16 11:48 AM — May 1 11:41 AM, Puerto Vallarta, Weather by CustomWeather, © 2016

Note: Actual official high and low records may vary slightly from our data, if they occured in-between our weather recording intervals... More about our weather records

Advertising

Puerto Vallarta Weather History for the Previous 24 Hours

Scroll right to see more
 ConditionsComfort  
Time TempWeatherWind HumidityBarometerVisibility
11:41 AM
Sun, May 1
81 °FHigh level clouds.9 mph66%29.88 "Hg12 mi
9:50 AM79 °FScattered clouds.No wind61%29.87 "Hg12 mi
8:49 AM73 °FPartly sunny.3 mph65%29.86 "Hg12 mi
7:46 AM70 °FHigh level clouds.No wind78%29.84 "Hg12 mi
6:47 AM73 °FPassing clouds.3 mph74%29.81 "Hg12 mi
5:47 AM73 °FPassing clouds.3 mph89%29.82 "Hg10 mi
4:47 AM73 °FPassing clouds.No wind89%29.83 "Hg10 mi
3:54 AM73 °FPassing clouds.No wind89%29.83 "Hg10 mi
2:49 AM73 °FPassing clouds.No wind89%29.84 "Hg10 mi
1:49 AM75 °FPassing clouds.5 mph83%29.85 "Hg10 mi
12:50 AM77 °FMostly cloudy.6 mph79%29.84 "Hg10 mi
11:47 PM
Sat, Apr 30
77 °FMostly cloudy.3 mph74%29.85 "Hg10 mi
10:49 PM77 °FMostly cloudy.No wind79%29.86 "Hg10 mi
9:51 PM77 °FMostly cloudy.5 mph74%29.83 "Hg10 mi
8:45 PM77 °FMostly cloudy.6 mph79%29.81 "Hg12 mi
3:47 PM79 °FOvercast.10 mph70%29.78 "Hg12 mi
2:47 PM81 °FHigh level clouds.9 mph62%29.79 "Hg12 mi
1:45 PM81 °FHigh level clouds.9 mph62%29.80 "Hg12 mi
Weather by CustomWeather, © 2016

See weather overviewHow to use our weather pages